Location: Unspecified
(43.4354°N, 0.0000°E)
Time: 21:55:43
(UTC+00:00)

Tiros 1 despin weight - Pass Details

Date: 01 July 2019
Orbit: 594 x 642 km, 48.2° (Epoch: 20 July)

Event Time Altitude Azimuth Distance (km) Brightness Sun altitude
Rises 02:13:16 0° 289° (WNW) 2,839 ? -17.1°
Reaches altitude 10° 02:15:50 10° 278° (W) 1,930 ? -16.8°
Enters shadow 02:17:04 16° 266° (W) 1,550 ? -16.7°
